Fairbanks, AK

2:22 AM AKDT on March 25, 2017 (GMT -0800)
Fairbanks International

Weather History for PAFA - September, 2015

Change the Weather History Date:

Tuesday, September 15, 2015

  Actual Average Record
Temperature  
Mean Temperature 44 °F 46 °F  
Max Temperature 49 °F 55 °F 75 °F (1919)
Min Temperature 39 °F 36 °F 15 °F (1992)
Degree Days  
Heating Degree Days 21 20  
Month to date heating degree days 247 248  
Since 1 July heating degree days 672 637  
Cooling Degree Days 0 0  
Month to date cooling degree days 0 0  
Year to date cooling degree days 62 61  
Moisture  
Dew Point 40 °F    
Average Humidity 90    
Maximum Humidity 100    
Minimum Humidity 77    
Precipitation  
Precipitation 0.01 in 0.04 in 0.42 in (1925)
Month to date precipitation 1.05 0.64  
Year to date precipitation 9.01 8.21  
Snow  
Snow 0.00 in 0.10 in 0.30 in (1962)
Month to date snowfall T 0.5  
Since 1 July snowfall T 0.5  
Since 1 September snowfall T 0.5  
Snow Depth 0.00 in    
Sea Level Pressure  
Sea Level Pressure 29.53 in    
Wind  
Wind Speed 2 mph (ENE)    
Max Wind Speed 7 mph    
Max Gust Speed -    
Visibility 4 miles    
Events Fog , Rain    
T = Trace of Precipitation, MM = Missing Value Source: NWS Daily Summary

Daily Weather History Graph

Daily Weather History Graph

Search for Another Location

Airport or City:

Trip Planner

Search our weather history database for the weather conditions in past years. The results will help you decide how hot, cold, wet, or windy it might be!

Date:

Astronomy

Sep. 15, 2015 Rise Set
Actual Time 7:13 AM AKDT 8:18 PM AKDT
Civil Twilight 6:22 AM AKDT 9:08 PM AKDT
Nautical Twilight 5:18 AM AKDT 10:11 PM AKDT
Astronomical Twilight 3:58 AM AKDT 11:30 PM AKDT
Moon 10:20 AM AKDT (9/15) 8:40 PM AKDT (9/15)
Length of Visible Light 14h 45m
Length of Day
13h 04m
Waxing Crescent, 6% of the Moon is Illuminated
Sep 15
Waxing Crescent
Sep 21
First Quarter
Sep 27
Full
Oct 4
Last Quarter
Oct 12
New

Hourly Weather History & Observations

Time (AKDT) Temp. Windchill Dew Point Humidity Pressure Visibility Wind Dir Wind Speed Gust Speed Precip Events Conditions
12:53 AM 42.1 °F - 39.9 °F 92% 29.52 in 7.0 mi Calm Calm - 0.00 in Rain Light Rain
1:53 AM 42.1 °F - 39.9 °F 92% 29.53 in 6.0 mi Calm Calm - 0.00 in   Overcast
2:10 AM 41.0 °F - 39.9 °F 96% 29.51 in 1.5 mi Calm Calm - N/A   Overcast
2:24 AM 41.0 °F - 39.0 °F 93% 29.51 in 0.8 mi Calm Calm - N/A   Overcast
2:53 AM 41.0 °F - 39.0 °F 93% 29.53 in 0.5 mi Calm Calm - N/A Fog Fog
3:53 AM 41.0 °F 39.0 °F 39.0 °F 93% 29.54 in 1.0 mi North 3.5 mph - N/A   Overcast
4:53 AM 39.9 °F - 39.0 °F 97% 29.55 in 2.0 mi Calm Calm - N/A   Overcast
5:17 AM 39.9 °F - 39.0 °F 97% 29.52 in 3.0 mi Calm Calm - N/A   Overcast
5:53 AM 41.0 °F - 39.0 °F 93% 29.55 in 1.5 mi Calm Calm - N/A   Overcast
6:53 AM 39.9 °F - 39.0 °F 97% 29.55 in 1.0 mi Calm Calm - N/A   Overcast
7:44 AM 39.9 °F 36.7 °F 37.9 °F 93% 29.53 in 0.5 mi ESE 4.6 mph - N/A Fog Fog
7:53 AM 39.0 °F 35.7 °F 37.9 °F 96% 29.55 in 0.5 mi SE 4.6 mph - N/A Fog Fog
8:26 AM 39.0 °F 36.8 °F 37.9 °F 96% 29.52 in 0.1 mi SE 3.5 mph - N/A Fog Fog
8:43 AM 39.0 °F - 39.0 °F 100% 29.53 in 1.0 mi Calm Calm - N/A   Mist
8:53 AM 39.9 °F 37.8 °F 39.0 °F 97% 29.55 in 1.0 mi ENE 3.5 mph - N/A   Mist
9:53 AM 41.0 °F 38.0 °F 39.9 °F 96% 29.54 in 1.0 mi East 4.6 mph - 0.00 in   Light Drizzle
10:53 AM 42.1 °F 39.2 °F 39.9 °F 92% 29.55 in 1.5 mi East 4.6 mph - 0.00 in   Overcast
11:53 AM 43.0 °F 40.3 °F 39.9 °F 89% 29.54 in 1.5 mi East 4.6 mph - 0.00 in   Light Drizzle
12:53 PM 44.1 °F 40.8 °F 42.1 °F 93% 29.53 in 1.5 mi East 5.8 mph - 0.00 in   Light Drizzle
1:18 PM 45.0 °F 41.8 °F 42.1 °F 90% 29.51 in 3.0 mi East 5.8 mph - 0.00 in   Light Drizzle
1:49 PM 44.6 °F 41.4 °F 42.8 °F 93% 29.51 in 3.0 mi East 5.8 mph - 0.00 in   Overcast
1:53 PM 46.0 °F 43.1 °F 41.0 °F 83% 29.53 in 3.0 mi East 5.8 mph - 0.00 in   Overcast
2:53 PM 46.0 °F 42.5 °F 42.1 °F 86% 29.52 in 6.0 mi ENE 6.9 mph - N/A   Overcast
3:53 PM 46.9 °F - 42.1 °F 83% 29.51 in 6.0 mi ENE 6.9 mph - 0.00 in   Overcast
4:53 PM 48.0 °F - 42.1 °F 80% 29.51 in 10.0 mi ENE 6.9 mph - 0.00 in   Overcast
5:53 PM 46.9 °F - 41.0 °F 80% 29.50 in 10.0 mi ENE 6.9 mph - 0.00 in   Mostly Cloudy
6:53 PM 48.0 °F - 41.0 °F 77% 29.51 in 10.0 mi Calm Calm - N/A   Mostly Cloudy
7:53 PM 46.9 °F - 41.0 °F 80% 29.51 in 10.0 mi NNE 3.5 mph - N/A   Mostly Cloudy
8:53 PM 45.0 °F - 42.1 °F 90% 29.51 in 10.0 mi Calm Calm - N/A   Overcast
9:53 PM 45.0 °F 42.6 °F 41.0 °F 86% 29.51 in 10.0 mi North 4.6 mph - N/A   Overcast
10:53 PM 44.1 °F - 41.0 °F 89% 29.52 in 10.0 mi Calm Calm - 0.00 in Rain Light Rain
11:53 PM 44.1 °F 41.5 °F 41.0 °F 89% 29.52 in 10.0 mi NNW 4.6 mph - 0.00 in Rain Light Rain